Weather History for Defiance, OH

Change the Weather History Date:

Thursday, January 31, 2013

  Actual Average Record
Temperature  
Mean Temperature 24 °F -  
Max Temperature 32 °F 31 °F 57 °F (2012)
Min Temperature 15 °F 17 °F -8 °F (1966)
Degree Days  
Heating Degree Days 42    
Moisture  
Dew Point 16 °F    
Average Humidity 73    
Maximum Humidity 86    
Minimum Humidity 54    
Precipitation  
Precipitation 0.03 in - - ()
Sea Level Pressure  
Sea Level Pressure 29.70 in    
Wind  
Wind Speed 12 mph (West)    
Max Wind Speed 20 mph    
Max Gust Speed 32 mph    
Visibility 5 miles    
Events Fog , Snow    
Averages and records for this station are not official NWS values.
T = Trace of Precipitation, MM = Missing Value Source: NWS Daily Summary

Daily Weather History Graph

Daily Weather History Graph

Search for Another Location

Airport:

Trip Planner

Search our weather history database for the weather conditions in past years. The results will help you decide how hot, cold, wet, or windy it might be!

Date:

Astronomy

Jan. 31, 2013 Rise Set
Actual Time 7:49 AM EST 5:53 PM EST
Civil Twilight 7:20 AM EST 6:22 PM EST
Nautical Twilight 6:47 AM EST 6:55 PM EST
Astronomical Twilight 6:14 AM EST 7:28 PM EST
Moon 10:58 PM EST (1/31) 9:45 AM EST (1/31)
Length of Visible Light 11h 02m
Length of Day
10h 03m
Waning Gibbous, 80% of the Moon is Illuminated
Jan 31
Waning Gibbous
Feb 3
Last Quarter
Feb 10
New
Feb 17
First Quarter
Feb 25
Full

Hourly Weather History & Observations

Time (EST) Temp. Windchill Dew Point Humidity Pressure Visibility Wind Dir Wind Speed Gust Speed Precip Events Conditions
12:02 AM 32.0 °F 23.0 °F 24.8 °F 75% 29.41 in 10.0 mi West 11.5 mph 21.9 mph N/A   Overcast
12:11 AM 32.0 °F 25.6 °F 23.0 °F 69% 29.41 in 10.0 mi Variable 6.9 mph 25.3 mph N/A   Overcast
12:53 AM 30.9 °F 21.7 °F 23.0 °F 72% 29.45 in 9.0 mi WSW 11.5 mph 27.6 mph N/A   Overcast
1:05 AM 30.2 °F 21.9 °F 23.0 °F 75% 29.45 in 2.0 mi West 9.2 mph 25.3 mph 0.00 in Snow Light Snow
1:17 AM 30.2 °F 21.3 °F 24.8 °F 80% 29.46 in 3.0 mi West 10.4 mph 20.7 mph 0.01 in Snow Light Snow
1:29 AM 30.2 °F 19.3 °F 23.0 °F 75% 29.46 in 10.0 mi West 15.0 mph 28.8 mph 0.01 in   Overcast
1:37 AM 30.2 °F 21.3 °F 23.0 °F 75% 29.47 in 10.0 mi West 10.4 mph 28.8 mph 0.01 in Snow Light Snow
1:53 AM 30.9 °F 20.2 °F 21.9 °F 69% 29.48 in 9.0 mi West 15.0 mph 28.8 mph 0.01 in   Overcast
2:29 AM 28.4 °F 17.0 °F 21.2 °F 74% 29.51 in 5.0 mi West 15.0 mph 27.6 mph 0.00 in Snow Light Snow
2:53 AM 28.0 °F 16.5 °F 19.0 °F 69% 29.55 in 9.0 mi West 15.0 mph 31.1 mph 0.00 in   Overcast
3:13 AM 26.6 °F 14.3 °F 17.6 °F 69% 29.54 in 10.0 mi West 16.1 mph 31.1 mph 0.00 in   Overcast
3:44 AM 26.6 °F 15.7 °F 19.4 °F 74% 29.56 in 2.5 mi West 12.7 mph 25.3 mph 0.00 in Snow Light Snow
3:46 AM 26.6 °F 17.5 °F 19.4 °F 74% 29.56 in 1.5 mi West 9.2 mph 23.0 mph 0.00 in Snow Light Snow
3:53 AM 26.1 °F 16.2 °F 21.0 °F 81% 29.58 in 0.5 mi West 10.4 mph 19.6 mph 0.00 in Snow Snow
4:04 AM 24.8 °F 16.1 °F 21.2 °F 86% 29.57 in 0.5 mi West 8.1 mph 17.3 mph 0.01 in Fog , Snow Snow
4:10 AM 24.8 °F 13.4 °F 21.2 °F 86% 29.57 in 1.0 mi West 12.7 mph 20.7 mph 0.01 in Snow Light Snow
4:13 AM 24.8 °F 12.9 °F 21.2 °F 86% 29.57 in 2.5 mi West 13.8 mph 24.2 mph 0.01 in Snow Light Snow
4:21 AM 24.8 °F 14.6 °F 19.4 °F 80% 29.58 in 2.0 mi West 10.4 mph 24.2 mph 0.01 in Snow Light Snow
4:29 AM 24.8 °F 16.1 °F 19.4 °F 80% 29.58 in 3.0 mi West 8.1 mph 23.0 mph 0.01 in Snow Light Snow
4:53 AM 25.0 °F 15.5 °F 18.0 °F 75% 29.61 in 9.0 mi West 9.2 mph 25.3 mph 0.01 in   Overcast
5:13 AM 24.8 °F 16.9 °F 15.8 °F 69% 29.61 in 10.0 mi Variable 6.9 mph 24.2 mph N/A   Overcast
5:28 AM 24.8 °F 14.0 °F 15.8 °F 69% 29.62 in 2.0 mi West 11.5 mph 21.9 mph 0.00 in Snow Light Snow
5:33 AM 23.0 °F 12.4 °F 17.6 °F 80% 29.62 in 0.8 mi West 10.4 mph 21.9 mph 0.00 in Snow Light Snow
5:42 AM 23.0 °F 11.7 °F 19.4 °F 86% 29.62 in 0.5 mi West 11.5 mph 18.4 mph 0.01 in Fog , Snow Snow
5:47 AM 23.0 °F 11.1 °F 19.4 °F 86% 29.62 in 1.0 mi West 12.7 mph 23.0 mph 0.01 in Snow Light Snow
5:53 AM 23.0 °F 11.7 °F 17.1 °F 78% 29.65 in 5.0 mi West 11.5 mph 23.0 mph 0.01 in Snow Light Snow
6:04 AM 23.0 °F 11.1 °F 15.8 °F 74% 29.63 in 9.0 mi West 12.7 mph 23.0 mph 0.00 in   Overcast
6:53 AM 23.0 °F 9.6 °F 15.1 °F 72% 29.67 in 4.0 mi WSW 16.1 mph 28.8 mph 0.00 in Snow Light Snow
7:44 AM 21.2 °F 6.0 °F 15.8 °F 80% 29.68 in 2.5 mi WSW 19.6 mph 31.1 mph 0.00 in Snow Light Snow
7:53 AM 21.0 °F 8.6 °F 14.0 °F 74% 29.71 in 2.0 mi WSW 12.7 mph 31.1 mph 0.00 in Snow Light Snow
7:59 AM 21.2 °F 10.1 °F 15.8 °F 80% 29.69 in 1.8 mi WSW 10.4 mph 26.5 mph 0.00 in Snow Light Snow
8:13 AM 19.4 °F 6.6 °F 15.8 °F 86% 29.69 in 0.8 mi WSW 12.7 mph 23.0 mph 0.00 in Snow Light Snow
8:25 AM 19.4 °F 6.6 °F 15.8 °F 86% 29.70 in 1.2 mi WSW 12.7 mph 25.3 mph 0.00 in Snow Light Snow
8:37 AM 19.4 °F 6.0 °F 14.0 °F 80% 29.71 in 3.0 mi WSW 13.8 mph 21.9 mph 0.00 in Snow Light Snow
8:44 AM 19.4 °F 6.6 °F 14.0 °F 80% 29.71 in 9.0 mi WSW 12.7 mph 21.9 mph 0.00 in   Overcast
8:53 AM 19.9 °F 5.2 °F 12.9 °F 74% 29.74 in 9.0 mi WSW 17.3 mph 25.3 mph 0.00 in   Overcast
9:53 AM 21.0 °F 8.1 °F 9.0 °F 60% 29.78 in 10.0 mi WSW 13.8 mph 25.3 mph 0.00 in   Overcast
10:32 AM 19.4 °F 6.0 °F 12.2 °F 74% 29.77 in 2.0 mi WSW 13.8 mph 23.0 mph 0.00 in Snow Light Snow
10:38 AM 19.4 °F 5.5 °F 14.0 °F 80% 29.77 in 1.2 mi WSW 15.0 mph 23.0 mph 0.00 in Snow Light Snow
10:44 AM 19.4 °F 7.2 °F 14.0 °F 80% 29.77 in 2.5 mi WSW 11.5 mph 23.0 mph 0.00 in Snow Light Snow
10:51 AM 21.2 °F 7.3 °F 12.2 °F 68% 29.78 in 7.0 mi WSW 16.1 mph 25.3 mph 0.00 in   Overcast
10:53 AM 21.0 °F 6.6 °F 12.9 °F 71% 29.81 in 9.0 mi WSW 17.3 mph 26.5 mph 0.00 in   Overcast
11:31 AM 21.2 °F 8.9 °F 10.4 °F 63% 29.79 in 10.0 mi West 12.7 mph 21.9 mph N/A   Overcast
11:53 AM 23.0 °F 10.6 °F 10.0 °F 58% 29.81 in 10.0 mi West 13.8 mph 32.2 mph N/A   Overcast
12:53 PM 24.1 °F 13.1 °F 12.0 °F 60% 29.81 in 10.0 mi West 11.5 mph 25.3 mph N/A   Overcast
1:04 PM 23.0 °F 11.1 °F 14.0 °F 68% 29.78 in 4.0 mi West 12.7 mph 27.6 mph 0.00 in Snow Light Snow
1:08 PM 23.0 °F 12.4 °F 14.0 °F 68% 29.79 in 2.0 mi West 10.4 mph 27.6 mph 0.00 in Snow Light Snow
1:15 PM 23.0 °F 10.1 °F 15.8 °F 74% 29.78 in 2.0 mi WSW 15.0 mph 23.0 mph 0.00 in Snow Light Snow
1:17 PM 23.0 °F 12.4 °F 14.0 °F 68% 29.78 in 3.0 mi WSW 10.4 mph 23.0 mph 0.00 in Snow Light Snow
1:53 PM 24.1 °F 13.1 °F 14.0 °F 65% 29.81 in 5.0 mi WSW 11.5 mph 18.4 mph 0.00 in Snow Light Snow
2:00 PM 24.8 °F 12.9 °F 15.8 °F 69% 29.78 in 2.5 mi WSW 13.8 mph 20.7 mph 0.00 in Snow Light Snow
2:09 PM 23.0 °F 10.1 °F 15.8 °F 74% 29.79 in 1.8 mi West 15.0 mph 23.0 mph 0.00 in Snow Light Snow
2:20 PM 21.2 °F 7.8 °F 15.8 °F 80% 29.79 in 0.5 mi West 15.0 mph 21.9 mph 0.00 in Snow Snow
2:37 PM 24.8 °F 15.3 °F 15.8 °F 69% 29.79 in 2.0 mi WSW 9.2 mph 23.0 mph 0.00 in Snow Light Snow
2:53 PM 25.0 °F 13.6 °F 14.0 °F 63% 29.82 in 10.0 mi West 12.7 mph 25.3 mph 0.00 in   Overcast
3:01 PM 24.8 °F 14.6 °F 14.0 °F 64% 29.79 in 10.0 mi West 10.4 mph 21.9 mph N/A   Overcast
3:13 PM 23.0 °F 13.1 °F 15.8 °F 74% 29.80 in 2.0 mi West 9.2 mph 20.7 mph 0.00 in Snow Light Snow
3:18 PM 21.2 °F 10.1 °F 15.8 °F 80% 29.80 in 0.8 mi West 10.4 mph 20.7 mph 0.00 in Snow Light Snow
3:44 PM 21.2 °F 9.5 °F 15.8 °F 80% 29.81 in 1.2 mi West 11.5 mph 26.5 mph 0.00 in Snow Light Snow
3:53 PM 21.9 °F 11.0 °F 12.9 °F 68% 29.85 in 4.0 mi West 10.4 mph 26.5 mph 0.00 in Snow Light Snow
4:06 PM 21.2 °F 10.9 °F 12.2 °F 68% 29.82 in 9.0 mi West 9.2 mph 23.0 mph 0.00 in   Overcast
4:53 PM 21.9 °F 11.7 °F 10.0 °F 60% 29.86 in 10.0 mi West 9.2 mph 20.7 mph 0.00 in   Overcast
5:53 PM 19.9 °F 7.3 °F 8.1 °F 60% 29.88 in 10.0 mi West 12.7 mph 19.6 mph N/A   Overcast
6:53 PM 19.0 °F 6.8 °F 5.0 °F 54% 29.91 in 10.0 mi West 11.5 mph 20.7 mph N/A   Overcast
7:53 PM 18.0 °F 6.1 °F 3.9 °F 54% 29.94 in 10.0 mi West 10.4 mph 19.6 mph N/A   Mostly Cloudy
8:53 PM 17.1 °F 4.3 °F 5.0 °F 59% 29.96 in 10.0 mi West 11.5 mph 19.6 mph N/A   Mostly Cloudy
9:53 PM 16.0 °F 6.3 °F 7.0 °F 68% 29.97 in 9.0 mi WSW 6.9 mph 19.6 mph 0.00 in Snow Light Snow
10:43 PM 15.8 °F 4.2 °F 6.8 °F 68% 29.94 in 10.0 mi West 9.2 mph - 0.00 in   Mostly Cloudy
11:53 PM 15.1 °F 4.2 °F 5.0 °F 64% 30.00 in 10.0 mi West 8.1 mph 19.6 mph N/A   Overcast